Retour au catalogue

FENGYUN 1C DEB

LostSSO
NORAD 47027·DEBRIS·🇨🇳 China

Lancé May 10, 1999 depuis Taiyuan Satellite Launch Center

Loading…

Prochains Passages (prochaines 24 heures)

TLE

PériméSource: Space-Track

Époque: Apr 5, 2024, 21:22 UTC

1 47027U 99025FBD 24096.89047343  .00006499  00000-0  27543-2 0  9995
2 47027  98.5069 149.9563 0087727 303.2087 235.1816 14.23661377610542

Suivez FENGYUN 1C DEB en temps réel avec AllMySat

Download on the App Store